Terminal Aerodrome Forecast
Issued by NWS Greer, SC

Home | Current Version | Previous Version | Text Only | Print | Product List | Glossary On
Versions: 1 2 3 4 5 6 7 8 9 10 11 12 13 14 15 16 17 18 19 20 21 22 23 24 25 26 27 28 29 30 31 32 33 34 35 36 37 38 39 40 41 42 43 44 45 46
000
FTUS42 KGSP 300859 AAA
TAFCLT
TAF AMD
KCLT 300859Z 3009/0106 22007KT P6SM FEW090 SCT110
      TEMPO 3009/3013 SCT090 BKN110
     FM301300 23009KT P6SM SCT060
     FM301800 23009G17KT P6SM BKN060 PROB30 3021/0101 4SM TSRA
      BKN040CB
     FM010400 21006KT P6SM BKN060=

USA.gov is the U.S. government's official web portal to all federal, state and local government web resources and services.